Location: Friaudour
(46.0460°N, 1.2873°E)
Time: 04:36:01
(UTC+00:00)

BREEZE-M TANK - Pass Details

Date: 14 July 2020
Orbit: 489 x 24798 km, 45.2° (Epoch: 06 August)

Event Time Altitude Azimuth Distance (km) Brightness Sun altitude
Exits shadow 03:36:33 - 266° (W) 2,243 5.0 -6.6°
Reaches altitude 10° 03:37:37 10° 266° (W) 1,695 4.3 -6.4°
Maximum altitude 03:40:39 82° 178° (S) 648 2.6 -6.0°
Drops below altitude 10° 03:47:12 10° 92° (E) 3,573 7.3 -5.2°
Sets 03:52:43 0° 92° (E) 6,180 8.5 -4.4°
